ZSHLZ FAPE-FAPE

Flight info

Callsign ZSHLZ
Flight time 0h 27m
Altitude 1000
Route FAPE DCT SCHOENMAKERSKOP DCT SEAVIEW DCT MAITLANDS DCT SEAVIEW DCT FAPE
Aircraft UH1/L-VGD/C

Departure

Time 2026-04-27 10:56
Airport Chief Dawid Stuurman International Airport (FAPE)

Arrival

Time 2026-04-27 11:23
Airport Chief Dawid Stuurman International Airport (FAPE)
Time Latitude Longitude Altitude Speed Heading
2026-04-27 10:38 -33.98002 25.62155 191 ft 0 kts 349°
2026-04-27 10:45 -33.97995 25.62171 205 ft 9 kts 340°
2026-04-27 10:45 -33.98104 25.62232 335 ft 52 kts 192°
2026-04-27 10:45 -33.98581 25.62363 374 ft 77 kts 208°
2026-04-27 10:46 -33.99159 25.62740 375 ft 110 kts 147°
2026-04-27 10:46 -33.99680 25.62955 493 ft 64 kts 221°
2026-04-27 10:46 -34.00133 25.62670 364 ft 83 kts 207°
2026-04-27 10:46 -34.00750 25.62586 377 ft 85 kts 200°
2026-04-27 10:47 -34.01324 25.62525 402 ft 88 kts 189°
2026-04-27 10:47 -34.01890 25.62351 370 ft 81 kts 223°
2026-04-27 10:47 -34.02274 25.61846 496 ft 82 kts 239°
2026-04-27 10:47 -34.02577 25.61222 544 ft 87 kts 250°
2026-04-27 10:48 -34.02634 25.61045 559 ft 86 kts 251°
2026-04-27 10:48 -34.02782 25.60541 469 ft 91 kts 252°
2026-04-27 10:48 -34.03032 25.59815 470 ft 94 kts 242°
2026-04-27 10:48 -34.03365 25.59122 473 ft 95 kts 244°
2026-04-27 10:49 -34.03432 25.58945 458 ft 95 kts 246°
2026-04-27 10:49 -34.03667 25.58200 499 ft 99 kts 245°
2026-04-27 10:49 -34.04067 25.57497 395 ft 100 kts 248°
2026-04-27 10:49 -34.04328 25.56817 364 ft 80 kts 244°
2026-04-27 10:50 -34.04374 25.56192 393 ft 76 kts 272°
2026-04-27 10:50 -34.04317 25.55526 399 ft 77 kts 273°
2026-04-27 10:50 -34.04176 25.54805 285 ft 99 kts 275°
2026-04-27 10:50 -34.04073 25.54020 386 ft 98 kts 275°
2026-04-27 10:51 -34.03824 25.53227 354 ft 106 kts 284°
2026-04-27 10:51 -34.03662 25.52384 409 ft 99 kts 267°
2026-04-27 10:51 -34.03711 25.51547 326 ft 101 kts 261°
2026-04-27 10:51 -34.03507 25.50778 405 ft 102 kts 287°
2026-04-27 10:52 -34.03278 25.49973 335 ft 101 kts 276°
2026-04-27 10:52 -34.03154 25.49170 376 ft 93 kts 272°
2026-04-27 10:52 -34.03050 25.48429 458 ft 90 kts 274°
2026-04-27 10:52 -34.02999 25.48174 496 ft 88 kts 278°
2026-04-27 10:53 -34.02965 25.48032 579 ft 79 kts 281°
2026-04-27 10:53 -34.02852 25.46853 434 ft 99 kts 263°
2026-04-27 10:53 -34.02933 25.46032 396 ft 94 kts 261°
2026-04-27 10:54 -34.03022 25.45310 551 ft 83 kts 262°
2026-04-27 10:54 -34.03061 25.44626 641 ft 84 kts 264°
2026-04-27 10:54 -34.03037 25.43843 468 ft 95 kts 254°
2026-04-27 10:54 -34.03179 25.43130 529 ft 94 kts 262°
2026-04-27 10:55 -34.03167 25.42329 519 ft 96 kts 268°
2026-04-27 10:55 -34.03168 25.41530 450 ft 99 kts 259°
2026-04-27 10:55 -34.03096 25.40988 383 ft 102 kts 275°
2026-04-27 10:55 -34.02859 25.40287 605 ft 88 kts 290°
2026-04-27 10:56 -34.02436 25.39775 854 ft 89 kts 304°
2026-04-27 10:56 -34.02026 25.39170 803 ft 92 kts 280°
2026-04-27 10:56 -34.01857 25.38412 698 ft 98 kts 278°
2026-04-27 10:56 -34.01818 25.37578 480 ft 104 kts 257°
2026-04-27 10:57 -34.01828 25.36768 462 ft 92 kts 267°
2026-04-27 10:57 -34.01811 25.36170 407 ft 57 kts 276°
2026-04-27 10:57 -34.01577 25.35714 350 ft 75 kts 292°
2026-04-27 10:57 -34.01538 25.35232 382 ft 51 kts 265°
2026-04-27 10:58 -34.01220 25.35011 531 ft 84 kts 25°
2026-04-27 10:58 -34.01361 25.35404 614 ft 24 kts 250°
2026-04-27 10:58 -34.01342 25.35282 304 ft 27 kts 276°
2026-04-27 10:58 -34.01265 25.35123 133 ft 15 kts 275°
2026-04-27 10:59 -34.01249 25.35063 53 ft 2 kts 276°
2026-04-27 10:59 -34.01247 25.35061 42 ft 0 kts 279°
2026-04-27 11:02 -34.01211 25.34974 117 ft 38 kts 286°
2026-04-27 11:03 -34.01031 25.34454 176 ft 70 kts 270°
2026-04-27 11:03 -34.00846 25.33965 190 ft 75 kts 288°
2026-04-27 11:03 -34.00571 25.33373 200 ft 86 kts 287°
2026-04-27 11:03 -34.00320 25.32759 278 ft 81 kts 279°
2026-04-27 11:04 -34.00059 25.32135 242 ft 89 kts 289°
2026-04-27 11:04 -33.99759 25.31491 239 ft 86 kts 283°
2026-04-27 11:04 -33.99499 25.30829 223 ft 89 kts 288°
2026-04-27 11:04 -33.99216 25.30163 176 ft 88 kts 282°
2026-04-27 11:05 -33.98989 25.29496 254 ft 79 kts 283°
2026-04-27 11:05 -33.98851 25.28865 301 ft 67 kts 272°
2026-04-27 11:05 -33.98533 25.28907 234 ft 97 kts 66°
2026-04-27 11:05 -33.98615 25.29234 272 ft 21 kts 255°
2026-04-27 11:06 -33.98654 25.28972 154 ft 23 kts 252°
2026-04-27 11:06 -33.98667 25.28932 28 ft 1 kts 257°
2026-04-27 11:07 -33.98666 25.28930 22 ft 2 kts 256°
2026-04-27 11:07 -33.98752 25.29049 73 ft 59 kts 135°
2026-04-27 11:08 -33.99042 25.29753 204 ft 120 kts 123°
2026-04-27 11:08 -33.99395 25.30786 244 ft 134 kts 120°
2026-04-27 11:08 -33.99705 25.31777 293 ft 114 kts 90°
2026-04-27 11:08 -33.99764 25.32583 480 ft 90 kts 123°
2026-04-27 11:09 -34.00048 25.32511 667 ft 63 kts 276°
2026-04-27 11:09 -33.99811 25.31900 485 ft 94 kts 271°
2026-04-27 11:09 -34.00141 25.32501 334 ft 134 kts 101°
2026-04-27 11:09 -34.00501 25.33433 413 ft 123 kts 151°
2026-04-27 11:10 -34.01053 25.34305 311 ft 140 kts 118°
2026-04-27 11:10 -34.01497 25.35303 323 ft 134 kts 127°
2026-04-27 11:10 -34.01767 25.36432 372 ft 151 kts 86°
2026-04-27 11:10 -34.01703 25.37694 442 ft 149 kts 95°
2026-04-27 11:11 -34.02078 25.37891 519 ft 88 kts 253°
2026-04-27 11:11 -34.01751 25.37523 513 ft 140 kts 63°
2026-04-27 11:11 -34.02156 25.38467 564 ft 131 kts 145°
2026-04-27 11:11 -34.02831 25.39299 394 ft 149 kts 142°
2026-04-27 11:12 -34.03239 25.40270 486 ft 135 kts 104°
2026-04-27 11:12 -34.03292 25.41028 683 ft 115 kts 98°
2026-04-27 11:12 -34.03362 25.42037 547 ft 128 kts 97°
2026-04-27 11:13 -34.03354 25.43108 466 ft 125 kts 86°
2026-04-27 11:13 -34.03269 25.44109 572 ft 112 kts 86°
2026-04-27 11:13 -34.03246 25.45027 648 ft 118 kts 94°
2026-04-27 11:13 -34.03172 25.46090 467 ft 132 kts 80°
2026-04-27 11:14 -34.03164 25.47214 331 ft 139 kts 102°
2026-04-27 11:14 -34.03356 25.48407 336 ft 147 kts 98°
2026-04-27 11:14 -34.03300 25.49628 419 ft 149 kts 77°
2026-04-27 11:14 -34.03290 25.50807 537 ft 137 kts 112°
2026-04-27 11:15 -34.03556 25.51947 534 ft 145 kts 112°
2026-04-27 11:15 -34.03927 25.53088 481 ft 154 kts 101°
2026-04-27 11:15 -34.03954 25.54253 595 ft 98 kts 174°
2026-04-27 11:15 -34.04088 25.53679 419 ft 101 kts 267°
2026-04-27 11:16 -34.03824 25.54089 487 ft 130 kts 121°
2026-04-27 11:16 -34.04251 25.55108 401 ft 147 kts 110°
2026-04-27 11:16 -34.04369 25.56364 340 ft 152 kts 96°
2026-04-27 11:16 -34.04653 25.57552 322 ft 143 kts 123°
2026-04-27 11:17 -34.04838 25.58720 327 ft 148 kts 82°
2026-04-27 11:17 -34.04589 25.59934 302 ft 145 kts 70°
2026-04-27 11:17 -34.04418 25.61104 356 ft 145 kts 101°
2026-04-27 11:17 -34.04315 25.62288 472 ft 149 kts 66°
2026-04-27 11:18 -34.04050 25.63469 426 ft 157 kts 69°
2026-04-27 11:18 -34.03442 25.64538 217 ft 153 kts 30°
2026-04-27 11:18 -34.02847 25.65517 338 ft 145 kts 69°
2026-04-27 11:18 -34.02669 25.66722 313 ft 151 kts 85°
2026-04-27 11:19 -34.02705 25.67907 441 ft 138 kts 115°
2026-04-27 11:19 -34.03057 25.68992 411 ft 147 kts 114°
2026-04-27 11:19 -34.03077 25.70211 436 ft 150 kts 46°
2026-04-27 11:19 -34.03181 25.70331 353 ft 107 kts 165°
2026-04-27 11:20 -34.02887 25.70784 386 ft 101 kts 308°
2026-04-27 11:20 -34.02351 25.70183 273 ft 108 kts 298°
2026-04-27 11:20 -34.01684 25.69666 201 ft 119 kts 321°
2026-04-27 11:20 -34.00896 25.69344 237 ft 118 kts 329°
2026-04-27 11:21 -34.00132 25.69009 217 ft 114 kts 312°
2026-04-27 11:21 -33.99513 25.68472 195 ft 111 kts 305°
2026-04-27 11:21 -33.98912 25.67898 209 ft 109 kts 304°
2026-04-27 11:21 -33.98417 25.67264 202 ft 99 kts 282°
2026-04-27 11:22 -33.98203 25.66477 166 ft 98 kts 276°
2026-04-27 11:22 -33.97859 25.65760 201 ft 102 kts 294°
2026-04-27 11:22 -33.97367 25.65123 183 ft 105 kts 296°
2026-04-27 11:22 -33.97064 25.64406 241 ft 92 kts 270°
2026-04-27 11:23 -33.96904 25.63638 249 ft 91 kts 268°
2026-04-27 11:23 -33.97374 25.63622 248 ft 94 kts 157°
2026-04-27 11:23 -33.97603 25.63570 298 ft 49 kts 271°
2026-04-27 11:23 -33.97130 25.63340 218 ft 79 kts 319°
2026-04-27 11:24 -33.96652 25.63056 243 ft 74 kts 304°
2026-04-27 11:24 -33.96551 25.62554 203 ft 66 kts 245°
2026-04-27 11:24 -33.96960 25.62377 377 ft 83 kts 178°
2026-04-27 11:24 -33.97443 25.62449 483 ft 60 kts 214°
2026-04-27 11:25 -33.97845 25.62455 291 ft 35 kts 212°
2026-04-27 11:25 -33.97977 25.62311 236 ft 25 kts 237°
2026-04-27 11:25 -33.98003 25.62257 191 ft 0 kts 238°